Regional Weather Roundup
Issued by NWS

Home | Current Version | Previous Version | Text Only | Print | Product List | Glossary On
Versions: 1 2 3 4 5 6 7 8 9 10 11 12 13 14 15 16 17 18 19 20 21 22 23 24 25 26 27 28 29 30 31 32 33 34 35 36 37 38 39 40 41 42 43 44 45 46 47 48 49 50
000
ASUS44 KJAN 232110
RWRMS

MISSISSIPPI HOURLY WEATHER ROUNDUP
NATIONAL WEATHER SERVICE JACKSON MS
300 PM CST SUN NOV 23 2014

NOTE: "FAIR: INDICATES FEW OR NO CLOUDS BELOW 12,000 FEET WITH NO
SIGNIFICANT WEATHER AND/OR OBSTRUCTIONS TO VISIBILITY.

MSZ001>002-007>008-010>013-018>021-025>028-034>036-232200-
NORTHWEST MISSISSIPPI

CITY           SKY/WX    TMP DP  RH WIND       PRES   REMARKS
CLARKSDALE     PTSUNNY   63  63 100 SW10      29.35R
CLEVELAND      CLOUDY    62  62 100 SW17G25   29.42R
GREENWOOD      RAIN      62  59  90 SW21G31   29.44R
GREENVILLE     CLOUDY    64  60  87 SW16      29.42S
GRENADA        RAIN      61  59  94 SW21G39   29.39R
OLIVE BRANCH   PTSUNNY   61  59  94 S7        29.33F
OXFORD         CLOUDY    59  57  94 S15G32    29.34F FOG
TUNICA         RAIN      63  61  94 S3        29.33F
$$

MSZ003>006-009-014>017-022>024-029>033-037>039-232200-
NORTHEAST MISSISSIPPI

CITY           SKY/WX    TMP DP  RH WIND       PRES   REMARKS
COLUMBUS AFB   PTSUNNY   67  60  78 S13G20    29.45R
CORINTH        CLOUDY    64  61  88 S14       29.38S
GOLDN TRIANGLE CLOUDY    68  57  68 S16G25    29.46R
STARKVILLE       N/A    N/A N/A N/A SW12G20   29.46R
TUPELO         CLOUDY    66  61  84 MISG      29.39F
$$

MSZ040-058-232200-
CENTRAL MISSISSIPPI

CITY           SKY/WX    TMP DP  RH WIND       PRES   REMARKS
JACKSON INTL   CLOUDY    68  58  70 S13G22    29.51R
JACKSON HAWKNS CLOUDY    70  57  63 S15G22    29.50S
MERIDIAN KEY   CLOUDY    66  57  72 SW17G24   29.55R
MERIDIAN NAS   CLOUDY    68  57  68 SW9       29.54R
RAYMOND        FAIR      72  66  83 SW13G23   29.49S
VICKSBURG      PTSUNNY   69  59  70 SW10G18   29.49S
$$

MSZ059>079-232200-
SOUTH MISSISSIPPI

CITY           SKY/WX    TMP DP  RH WIND       PRES   REMARKS
BROOKHAVEN     FAIR      72  61  68 S21G26    29.56R
HATTIESBURG    PTSUNNY   72  60  66 SW15G24   29.59F
MCCOMB         MOSUNNY   72  59  63 SW13G21   29.57S
NATCHEZ        MOSUNNY   73  57  56 SW15G26   29.54R
PINE BELT      PTSUNNY   70  57  64 SW13G22   29.59S
$$

MSZ080>082-232200-
COASTAL MISSISSIPPI

CITY           SKY/WX    TMP DP  RH WIND       PRES   REMARKS
BILOXI         SUNNY     65  61  85 SW14      29.66S
PASCAGOULA     MOSUNNY   67  61  81 SW13G22   29.68S
GULFPORT       SUNNY     68  60  75 SW12G22   29.65S
$$



USA.gov is the U.S. government's official web portal to all federal, state and local government web resources and services.